La Crosse, WI

11:55 AM CDT on May 26, 2018 (GMT -0500)
La Crosse Municipal

Weather History for KLSE - August, 2013

Change the Weather History Date:

Wednesday, August 21, 2013

  Actual Average Record
Temperature  
Mean Temperature 82 °F 71 °F  
Max Temperature 90 °F 81 °F 103 °F (1955)
Min Temperature 73 °F 61 °F 40 °F (2004)
Degree Days  
Heating Degree Days 0 1  
Month to date heating degree days 2 1  
Since 1 June heating degree days 58  
Since 1 July heating degree days 14 6  
Cooling Degree Days 17 7  
Month to date cooling degree days 100 158  
Year to date cooling degree days 625 645  
Since 1 June cooling degree days 565  
Growing Degree Days 32 (Base 50)    
Moisture  
Dew Point 68 °F    
Average Humidity 73    
Maximum Humidity 93    
Minimum Humidity 52    
Precipitation  
Precipitation T in 0.13 in 1.94 in (1939)
Month to date precipitation 0.93 3.00  
Year to date precipitation 27.04 22.67  
Snow  
Snow 0.00 in 0.00 in - ()
Month to date snowfall 0.0 0.0  
Since 1 June snowfall T  
Since 1 July snowfall T 0.0  
Snow Depth 0.00 in    
Sea Level Pressure  
Sea Level Pressure 29.90 in    
Wind  
Wind Speed 9 mph (South)    
Max Wind Speed 18 mph    
Max Gust Speed 25 mph    
Visibility 10 miles    
Events      
T = Trace of Precipitation, MM = Missing Value Source: NWS Daily Summary

Daily Weather History Graph

Daily Weather History Graph

Search for Another Location

Airport or City:

Astronomy

Aug. 21, 2013 Rise Set
Actual Time 6:16 AM CDT 7:59 PM CDT
Civil Twilight 5:45 AM CDT 8:29 PM CDT
Nautical Twilight 5:08 AM CDT 9:06 PM CDT
Astronomical Twilight 4:28 AM CDT 9:46 PM CDT
Moon 8:03 PM CDT (8/21) 6:59 AM CDT (8/21)
Length of Visible Light 14h 43m
Length of Day
13h 42m
Waxing Gibbous, 99% of the Moon is Illuminated
Aug 21
Waxing Gibbous
Aug 28
Last Quarter
Sep 5
New
Sep 12
First Quarter
Sep 19
Full

Hourly Weather History & Observations

Time (CDT) Temp. Heat Index Dew Point Humidity Pressure Visibility Wind Dir Wind Speed Gust Speed Precip Events Conditions
12:53 AM 78.1 °F - 66.9 °F 68% 29.91 in 10.0 mi South 9.2 mph - N/A   Mostly Cloudy
1:53 AM 77.0 °F - 66.0 °F 69% 29.90 in 10.0 mi South 11.5 mph - N/A   Scattered Clouds
2:53 AM 75.9 °F - 66.0 °F 71% 29.91 in 10.0 mi South 6.9 mph - N/A   Mostly Cloudy
3:53 AM 75.9 °F - 66.0 °F 71% 29.91 in 10.0 mi South 6.9 mph - N/A   Overcast
4:53 AM 75.0 °F - 64.9 °F 71% 29.89 in 10.0 mi South 10.4 mph - N/A   Partly Cloudy
5:53 AM 73.9 °F - 64.9 °F 73% 29.89 in 10.0 mi South 11.5 mph - N/A   Partly Cloudy
6:53 AM 75.0 °F - 64.9 °F 71% 29.90 in 10.0 mi South 12.7 mph - N/A   Mostly Cloudy
7:53 AM 75.9 °F - 66.0 °F 71% 29.89 in 10.0 mi South 13.8 mph - N/A   Overcast
8:53 AM 77.0 °F - 66.9 °F 71% 29.91 in 10.0 mi SSE 9.2 mph - N/A   Partly Cloudy
9:53 AM 81.0 °F 83.3 °F 66.9 °F 62% 29.91 in 10.0 mi South 11.5 mph - N/A   Clear
10:53 AM 84.0 °F 87.0 °F 68.0 °F 58% 29.89 in 10.0 mi South 12.7 mph - N/A   Clear
11:53 AM 87.1 °F 90.6 °F 68.0 °F 53% 29.89 in 10.0 mi SSW 13.8 mph - N/A   Clear
12:53 PM 89.1 °F 93.7 °F 69.1 °F 52% 29.88 in 10.0 mi SSW 13.8 mph 23.0 mph N/A   Clear
1:53 PM 90.0 °F 95.4 °F 70.0 °F 52% 29.86 in 10.0 mi SW 15.0 mph 21.9 mph N/A   Clear
2:53 PM 89.1 °F 94.1 °F 70.0 °F 53% 29.87 in 10.0 mi SSW 15.0 mph - N/A   Scattered Clouds
3:53 PM 87.1 °F 92.0 °F 70.0 °F 57% 29.89 in 10.0 mi SW 12.7 mph - N/A   Overcast
4:53 PM 86.0 °F 90.7 °F 70.0 °F 59% 29.88 in 10.0 mi SW 8.1 mph - N/A   Scattered Clouds
5:53 PM 82.9 °F 87.0 °F 70.0 °F 65% 29.88 in 10.0 mi WNW 9.2 mph 16.1 mph N/A   Scattered Clouds
6:53 PM 80.1 °F 83.6 °F 71.1 °F 74% 29.91 in 10.0 mi NE 4.6 mph - 0.00 in   Partly Cloudy
7:53 PM 80.1 °F 83.6 °F 71.1 °F 74% 29.91 in 10.0 mi SSW 3.5 mph - N/A   Clear
8:53 PM 77.0 °F - 71.1 °F 82% 29.96 in 10.0 mi Calm Calm - N/A   Clear
9:53 PM 75.0 °F - 71.1 °F 87% 29.96 in 8.0 mi Calm Calm - N/A   Clear
10:53 PM 73.9 °F - 71.1 °F 91% 29.95 in 7.0 mi Calm Calm - N/A   Partly Cloudy
11:53 PM 73.9 °F - 71.1 °F 91% 29.95 in 8.0 mi ESE 3.5 mph - N/A   Overcast